Location: Unspecified
(38.9820°N, 94.4650°W)
Time: 01:16:22
(UTC-05:00)

Envisat - Visible Passes

Search period start: 23 March 2019 00:00
Search period end: 02 April 2019 00:00
Orbit: 764 x 766 km, 98.2° (Epoch: 22 March)

Date Brightness Start Highest point End Pass type
(mag) Time Alt. Az. Time Alt. Az. Time Alt. Az.
23 Mar 6.0 21:23:59 10° WSW 21:26:14 13° W 21:28:31 10° WNW visible
24 Mar 5.0 20:44:46 10° SSW 20:49:10 30° W 20:53:36 10° NW visible
25 Mar 3.4 20:07:15 10° S 20:12:17 69° W 20:17:22 10° NNW visible
26 Mar 5.8 21:11:42 10° SW 21:14:55 17° W 21:18:08 10° NW visible
27 Mar 4.6 20:33:13 10° SSW 20:37:53 38° W 20:42:37 10° NNW visible
28 Mar 3.1 19:56:00 10° SSE 20:01:04 87° WSW 20:06:11 10° NNW visible
29 Mar 5.6 20:59:46 10° SW 21:03:35 21° W 21:07:26 10° NW visible
30 Mar 4.1 20:21:45 10° S 20:26:37 48° W 20:31:33 10° NNW visible
31 Mar 6.1 21:27:42 10° WSW 21:29:24 12° W 21:31:06 10° WNW visible
01 Apr 5.2 20:48:01 10° SSW 20:52:17 27° W 20:56:35 10° NW visible
